Flag for U.S.A. Weather past 2 weeks in Canton, Ohio, U.S.A.

Now
73 °F

Passing clouds.


Feels Like: 71 °F
Forecast: 68 / 83 °F
Wind: 6 mph from Northeast

Location: Akron-Canton Regional Airport

Current Time: Aug 22, 2014 at 10:30:20 PM

Latest Report: Aug 22, 2014 at 9:51 PM


Visibility: 9 mi

Pressure: 29.97 "Hg

Humidity: 88%

Dew point: 69 °F

Location of CantonLocation

Historic Weather in Canton — Graph

°F

Canton temperature yesterday

Maximum temperature yesterday: 79 °F (at 12:51 PM)
Minimum temperature yesterday: 67 °F (at 4:51 AM)
Average temperature yesterday: 73 °F

Past Weeks' High & Low Weather Summary

 TemperatureHumidityPressure
High85 °F (Aug 19, 2:51 PM)94% (Aug 20, 5:58 AM)30.15 "Hg (Aug 20, 5:58 AM)
Low51 °F (Aug 15, 6:51 AM)33% (Aug 13, 4:51 PM)29.69 "Hg (Aug 12, 4:51 PM)
Average70 °F70%29.95 "Hg
* Reported Aug 7 8:51 PM — Aug 22 8:51 PM, Canton, Weather by CustomWeather, © 2014

Note: Actual official high and low records may vary slightly from our data, if they occured in-between our weather recording intervals... More about our weather records

Advertising

Canton weather history for previous 24 hours

 ConditionsComfort  
Time TempWeatherWind HumidityBarometerVisibility
8:51 PM
Aug 22
75 °FPartly sunny.No wind88%29.96 "Hg9 mi
7:51 PM76 °FPartly sunny.5 mph85%29.94 "Hg9 mi
6:51 PM78 °FPartly sunny.No wind79%29.93 "Hg9 mi
5:51 PM77 °FBroken clouds.3 mph79%29.93 "Hg10 mi
4:51 PM81 °FBroken clouds.5 mph67%29.93 "Hg8 mi
3:51 PM80 °FBroken clouds.3 mph64%29.93 "Hg9 mi
2:51 PM80 °FBroken clouds.3 mph67%29.95 "Hg10 mi
1:51 PM79 °FBroken clouds.5 mph69%29.96 "Hg10 mi
12:51 PM77 °FPartly sunny.5 mph74%29.97 "Hg10 mi
11:51 AM75 °FPartly sunny.No wind82%29.98 "Hg8 mi
10:51 AM73 °FFog.7 mph88%29.98 "Hg6 mi
9:51 AM72 °FFog.No wind87%29.99 "Hg5 mi
8:51 AM71 °FFog.5 mph90%30.00 "Hg5 mi
7:51 AM70 °FMostly cloudy.5 mph90%29.99 "Hg7 mi
6:51 AM70 °FOvercast.5 mph87%29.98 "Hg8 mi
5:51 AM69 °FOvercast.6 mph90%29.96 "Hg8 mi
4:51 AM70 °FMostly cloudy.3 mph87%29.96 "Hg10 mi
3:51 AM68 °FPassing clouds.5 mph90%29.96 "Hg8 mi
2:51 AM70 °FMostly cloudy.No wind87%29.97 "Hg10 mi
1:51 AM71 °FLight rain. Overcast.No wind87%30.00 "Hg10 mi
12:51 AM71 °FPassing clouds.6 mph87%30.01 "Hg10 mi
11:51 PM
Aug 21
71 °FPassing clouds.5 mph87%30.01 "Hg10 mi
10:51 PM72 °FPassing clouds.8 mph84%30.01 "Hg10 mi
Weather by CustomWeather, © 2014

See weather overviewHow to use our weather pages